Regional Weather Roundup
Issued by NWS Newport/Morehead, NC

Current Version | Previous Version | Text Only | Print | Product List | Glossary On
Versions: 1 2 3 4 5 6 7 8 9 10 11 12 13 14 15 16 17 18 19 20 21 22 23 24 25 26 27 28 29 30 31 32 33 34 35 36 37 38 39 40 41 42 43 44 45 46 47 48 49 50
000 ASUS42 KMHX 260310 RWRMHX WEATHER ROUNDUP FOR EASTERN NORTH CAROLINA NATIONAL WEATHER SERVICE NEWPORT/MOREHEAD CITY NC 1100 PM EDT SAT OCT 25 2014 NOTE: "FAIR" INDICATES FEW OR NO CLOUDS BELOW 12,000 FEET WITH NO SIGNIFICANT WEATHER AND/OR OBSTRUCTIONS TO VISIBILITY NCZ015>017-031-032-045>047-102-103-260400- NORTH COAST CITY SKY/WX TMP DP RH WIND PRES REMARKS EDENTON CLEAR 61 50 66 SW7 29.85F ELIZABETH CITY CLEAR 57 48 72 SW10 29.83F KITTY HAWK CLEAR 60 50 69 SW8 29.83F MANTEO CLEAR 59 52 77 SW8 29.85F $$ NCZ045>047-081-094-103-104-260400- CENTRAL COAST CITY SKY/WX TMP DP RH WIND PRES REMARKS FRISCO CLEAR 62 55 77 W9 29.88S SWANQUARTER N/A 61 N/A N/A SW7 29.85S $$ NCZ095-097-098-100-101-260400- SOUTHERN COAST CITY SKY/WX TMP DP RH WIND PRES REMARKS BEAUFORT CLEAR 63 53 70 W7 29.90S CEDAR ISLAND N/A 61 N/A N/A SW6G12 29.94R JACKSONVILLE CLEAR 53 49 86 W5 29.91S PINEY ISLAND CLEAR 61 51 70 SW8 29.89S WILMINGTON CLEAR 55 49 80 W3 29.93S $$ NCZ011>013-027>030-043-044-078>080-089-090>093-098-260400- COASTAL PLAIN CITY SKY/WX TMP DP RH WIND PRES REMARKS AHOSKIE CLEAR 51 46 82 CALM 29.84F CLINTON CLEAR 51 47 87 CALM 29.91F ELIZABETHTOWN CLEAR 55 45 69 SW5 29.93S GOLDSBORO CLEAR 55 51 88 SW1 29.87F GREENVILLE CLEAR 54 46 76 SW5 29.89F HAVELOCK CLEAR 56 51 84 SW3 29.91S KENANSVILLE CLEAR 48 46 93 CALM 29.91F KINSTON CLEAR 51 47 87 SW6 29.89F NEW BERN CLEAR 56 49 77 SW6 29.91S RICHLANDS CLEAR 48 43 81 CALM 29.92S ROCKY MOUNT CLEAR 53 46 77 S8 29.87F WASHINGTON CLEAR 53 47 79 CALM 29.88F WHITEVILLE CLEAR 53 46 76 CALM 29.93S $$ AMZ130-135-150-152-154-156-158-170-250-252-270-ANZ085-086-088-633-658-670-260400- MARINE OBSERVATIONS STATION/POSITION TIME TEMP WIND PRES WAVE SWELL AIR SEA DIR/SP/G HT/PER HT/PER (UTC) (F) (DEG/KT/KT) (MB) (FT/S) (FT/S) CHESAPEAKE LIGHT 0200 65 240/ 18/ 20 1009.9 64 E VA BEACH 0300 66 66 240/ 17/ 19 1009.0 3/10 2/10 DUCK 0300 62 67 230/ 8/ 9 1009.7 2 E DUCK 0300 N/A 2/10 10 NE DUCK 0300 67 N/A 3/10 2/11 OREGON INLET 0300 63 66 220/ 12/ 14 1011.0 13E OREGON INLT 0300 69 N/A 3/ 9 2/11 HATTERAS CG 0300 65 67 250/ 12/ 15 1012.0 DIAMOND BUOY 0300 68 260/ 16/ 19 1011.6 3/ 9 2/ 9 17 S OCRACOKE 0200 VRB 14/ 17 1011.9 CAPE LOOKOUT 0200 68 260/ 13/ 16 1012.4 BEAUFORT LAB 0300 66 68 290/ 6/ 9 1012.0 30 SE NEW RIVER 0200 70 75 260/ 16/ 19 1012.3 5 SE WRIGHTSVLE 0300 64 71 280/ 14/ 16 N/A 225 S CAPE HAT 0214 72 77 10/ 6/ 6 1013.6 3/10 3/10 41 SE CHARLESTON 0300 71 77 270/ 8/ 10 1014.5 2/10 2/10 $$

USA.gov is the U.S. government's official web portal to all federal, state and local government web resources and services.